Regional Weather Roundup
Issued by NWS Portland, ME

Current Version | Previous Version | Graphics & Text | Print | Product List | Glossary Off
Versions: 1 2 3 4 5 6 7 8 9 10 11 12 13 14 15 16 17 18 19 20 21 22 23 24 25 26 27 28 29 30 31 32 33 34 35 36 37 38 39 40 41 42 43 44 45 46 47 48 49 50
000 ASUS41 KGYX 170505 RWRGYX WEATHER ROUNDUP FOR MAINE AND NEW HAMPSHIRE NATIONAL WEATHER SERVICE GRAY ME 1200 AM EST MON DEC 17 2018 MEZ002-005-006-010-012-015-018-020-021-024-026-027-029-170600- MAINE CITY SKY/WX TMP DP RH WIND PRES REMARKS PORTLAND LGT SNOW 33 32 96 NE10G18 29.86F FOG SANFORD MIX PCPN 33 31 92 NE13 29.83F BAR HARBOR FAIR 33 30 88 NE7 29.90F WISCASSET CLOUDY 34 29 82 VRB3 29.89F ROCKLAND LGT RAIN 36 33 89 NE12 29.88F FRYEBURG CLOUDY 33 27 78 N8 29.88F LEWISTONAUBURN CLOUDY 32 27 81 N8 29.88F AUGUSTA MOCLDY 30 25 81 N9 29.89F WATERVILLE FAIR 30 26 85 MISG 29.87F BANGOR CLOUDY 31 26 82 N7 29.92F GREENVILLE N/A 27 21 78 SE7 29.86F MILLINOCKET FAIR 25 22 88 CALM 29.96F HOULTON FAIR 26 24 92 CALM 29.94F PRESQUE ISLE FAIR 18 16 92 CALM 29.95F FRENCHVILLE FAIR 24 19 81 E6 29.91F CARIBOU FAIR 22 18 85 NE5 29.93F $$ NHZ002-005-008-009-011-012-014-170600- NEW HAMPSHIRE CITY SKY/WX TMP DP RH WIND PRES REMARKS PORTSMOUTH LGT RAIN 34 32 94 N10 29.79F ROCHESTER CLOUDY 33 33 100 N9G20 29.81F NASHUA LGT RAIN 34 34 100 N7 29.80F MANCHESTER LGTSLEET 36 33 89 N12 29.79F CONCORD LGT RAIN 33 32 96 N5 29.83F LACONIA SNOW 32 30 93 NE9 29.84F VSB 1/2 PLYMOUTH CLOUDY 36 28 74 E7 29.85F BERLIN CLOUDY 32 24 72 SE8 29.86F WHITEFIELD CLOUDY 29 25 85 CALM 29.84F JAFFREY FRZ RAIN 33 33 100 VRB6 29.76F KEENE LGT RAIN 33 32 96 N10 29.81F LEBANON CLOUDY 33 25 72 N3 29.84F MT WASHINGTON NOT AVBL $$ VTZ005-007-008-170600- VERMONT CITY SKY/WX TMP DP RH WIND PRES REMARKS ST JOHNSBURY N/A 30 27 88 MISG 29.84 MONTPELIER FAIR 29 27 92 CALM 29.87F BURLINGTON CLOUDY 34 27 75 SW3 29.85F $$ MAZ007-012-024-CTZ003-RIZ002-NYZ038-NYZ072-170600- SOUTHERN NEW ENGLAND AND NY CITY SKY/WX TMP DP RH WIND PRES REMARKS BOSTON LGT RAIN 41 38 89 NE22G28 29.75F FOG WORCESTER MIX PCPN 32 32 100 NE17G25 29.71F FOG NANTUCKET RAIN 46 45 96 NE15 29.58F FOG PROVIDENCE LGT RAIN 40 39 97 NE18 29.69F FOG HARTFORD LGT RAIN 35 33 92 N14G21 29.75F ALBANY LGTSLEET 34 31 88 NW5 29.85F NEW YORK CITY CLOUDY 39 34 82 N20 29.77S $$ ANZ081-ANZ082-ANZ150-NHZ014-MEZ023>029-170600- COASTAL MARINE OBSERVATIONS STATION/POSITION TIME TEMP WIND PRES WAVE AIR SEA DIR/SP/G HT/PER (UTC) (F) (DEG/KT/KT) (MB) (FT/S) MOUNT DESERT ROC 0400 38 60/ 23/ 25 1012.3F MATINICUS ROCK 0400 37 80/ 25/ 29 1011.2F ISLE OF SHOALS 0400 40 50/ 28/ 31 1008.5F JEFFREYS LEDGE 0438 46 N/A 11/ 7 CASHES LEDGE BUO 0450 40 47 1007.7F 10/ 8 $$ .............KEY.............. WCI - WIND CHILL TC - TEMPERATURE IN CELSIUS VSB - VISIBILITY IN MILES HX - HEAT INDEX FAIR- INDICATES FEW OR NO CLOUDS BELOW 12,000 FT, WITH NO SIGNIFICANT WEATHER AND/OR OBSTRUCTIONS TO VISIBILITY.

USA.gov is the U.S. government's official web portal to all federal, state and local government web resources and services.